Time,TemperatureF,DewpointF,PressureIn,WindDirection,WindDirectionDegrees,WindSpeedMPH,WindSpeedGustMPH,Humidity,HourlyPrecipIn,Conditions,Clouds,dailyrainin,SoftwareType,DateUTC
2013-09-14 00:13:00,53.0,50.0,30.11,NNE,22,0.0,0.0,89,0.00,,,0.00,,2013-09-14 05:13:00,
2013-09-14 00:22:00,53.0,49.0,30.11,North,5,0.0,0.0,87,0.00,,,0.00,,2013-09-14 05:22:00,
2013-09-14 00:43:00,54.0,50.0,30.11,North,5,0.0,0.0,86,0.00,,,0.00,,2013-09-14 05:43:00,
2013-09-14 00:52:00,54.0,49.0,30.11,NNE,26,0.0,0.0,84,0.00,,,0.00,,2013-09-14 05:52:00,
2013-09-14 01:12:00,54.0,49.0,30.11,North,11,0.0,0.0,83,0.00,,,0.00,,2013-09-14 06:12:00,
2013-09-14 01:21:00,54.0,49.0,30.12,NNE,12,0.0,0.0,82,0.00,,,0.00,,2013-09-14 06:21:00,
2013-09-14 01:42:00,53.0,48.0,30.12,NNE,22,0.0,0.0,83,0.00,,,0.00,,2013-09-14 06:42:00,
2013-09-14 01:52:00,53.0,48.0,30.12,NNE,22,0.0,0.0,82,0.00,,,0.00,,2013-09-14 06:52:00,
2013-09-14 02:12:00,52.0,47.0,30.12,NNE,22,0.0,0.0,83,0.00,,,0.00,,2013-09-14 07:12:00,
2013-09-14 02:21:00,52.0,47.0,30.13,NNE,30,0.0,0.0,84,0.00,,,0.00,,2013-09-14 07:21:00,
2013-09-14 02:42:00,52.0,47.0,30.13,NNE,32,0.0,0.0,83,0.00,,,0.00,,2013-09-14 07:42:00,
2013-09-14 02:52:00,52.0,47.0,30.13,NNE,24,0.0,0.0,84,0.00,,,0.00,,2013-09-14 07:52:00,
2013-09-14 03:12:00,52.0,47.0,30.12,NE,39,0.0,0.0,84,0.00,,,0.00,,2013-09-14 08:12:00,
2013-09-14 03:22:00,51.0,47.0,30.12,NE,38,0.0,0.0,85,0.00,,,0.00,,2013-09-14 08:22:00,
2013-09-14 03:42:00,51.0,47.0,30.11,NE,38,0.0,0.0,85,0.00,,,0.00,,2013-09-14 08:42:00,
2013-09-14 03:52:00,51.0,47.0,30.11,NE,38,0.0,0.0,86,0.00,,,0.00,,2013-09-14 08:52:00,
2013-09-14 04:12:00,50.0,46.0,30.11,NE,37,0.0,0.0,87,0.00,,,0.00,,2013-09-14 09:12:00,
2013-09-14 04:21:00,50.0,47.0,30.11,NE,37,0.0,0.0,88,0.00,,,0.00,,2013-09-14 09:21:00,
2013-09-14 04:43:00,49.0,46.0,30.12,NE,37,0.0,0.0,89,0.00,,,0.00,,2013-09-14 09:43:00,
2013-09-14 04:53:00,49.0,46.0,30.12,NE,37,0.0,0.0,89,0.00,,,0.00,,2013-09-14 09:53:00,
2013-09-14 05:12:00,49.0,46.0,30.11,NE,37,0.0,0.0,90,0.00,,,0.00,,2013-09-14 10:12:00,
2013-09-14 05:23:00,49.0,46.0,30.12,NNE,29,0.0,0.0,90,0.00,,,0.00,,2013-09-14 10:23:00,
2013-09-14 05:53:00,49.0,46.0,30.13,NNE,28,0.0,0.0,90,0.00,,,0.00,,2013-09-14 10:53:00,
2013-09-14 06:12:00,48.0,45.0,30.13,NNE,28,0.0,0.0,91,0.00,,,0.00,,2013-09-14 11:12:00,
2013-09-14 06:22:00,48.0,46.0,30.14,NNE,30,0.0,0.0,92,0.00,,,0.00,,2013-09-14 11:22:00,
2013-09-14 06:42:00,48.0,46.0,30.14,NNE,30,0.0,0.0,92,0.00,,,0.00,,2013-09-14 11:42:00,
2013-09-14 06:52:00,48.0,46.0,30.14,NNE,30,0.0,0.0,92,0.00,,,0.00,,2013-09-14 11:52:00,
2013-09-14 07:12:00,48.0,46.0,30.14,NNE,32,0.0,0.0,92,0.00,,,0.00,,2013-09-14 12:12:00,
2013-09-14 07:22:00,48.0,46.0,30.15,NNE,32,0.0,0.0,93,0.00,,,0.00,,2013-09-14 12:22:00,
2013-09-14 07:52:00,50.0,48.0,30.16,ENE,67,0.0,0.0,92,0.00,,,0.00,,2013-09-14 12:52:00,
2013-09-14 08:12:00,52.0,49.0,30.16,ENE,71,0.0,0.0,90,0.00,,,0.00,,2013-09-14 13:12:00,
2013-09-14 08:21:00,53.0,49.0,30.17,NNE,32,0.0,0.0,86,0.00,,,0.00,,2013-09-14 13:21:00,
2013-09-14 08:42:00,55.0,50.0,30.18,East,93,0.0,0.0,83,0.00,,,0.00,,2013-09-14 13:42:00,
2013-09-14 08:52:00,56.0,50.0,30.18,ENE,74,0.0,0.0,80,0.00,,,0.00,,2013-09-14 13:52:00,
2013-09-14 09:12:00,57.0,51.0,30.18,NE,42,0.0,0.0,79,0.00,,,0.00,,2013-09-14 14:12:00,
2013-09-14 09:22:00,58.0,50.0,30.19,NNE,19,0.0,0.0,75,0.00,,,0.00,,2013-09-14 14:22:00,
2013-09-14 09:42:00,58.0,50.0,30.19,SE,138,0.0,0.0,74,0.00,,,0.00,,2013-09-14 14:42:00,
2013-09-14 09:52:00,60.0,51.0,30.20,East,96,0.0,0.0,72,0.00,,,0.00,,2013-09-14 14:52:00,
2013-09-14 10:11:00,60.0,50.0,30.20,ESE,104,0.0,0.0,70,0.00,,,0.00,,2013-09-14 15:11:00,
2013-09-14 10:22:00,61.0,50.0,30.19,East,94,0.0,0.0,68,0.00,,,0.00,,2013-09-14 15:22:00,
2013-09-14 10:43:00,62.0,49.0,30.19,East,95,0.0,0.0,63,0.00,,,0.00,,2013-09-14 15:43:00,
2013-09-14 10:53:00,63.0,50.0,30.19,ENE,78,0.0,0.0,63,0.00,,,0.00,,2013-09-14 15:53:00,
2013-09-14 11:13:00,64.0,51.0,30.18,ESE,108,0.0,0.0,62,0.00,,,0.00,,2013-09-14 16:13:00,
2013-09-14 11:23:00,64.0,48.0,30.19,East,91,0.0,0.0,57,0.00,,,0.00,,2013-09-14 16:23:00,
2013-09-14 11:44:00,66.0,50.0,30.18,East,93,0.0,0.0,57,0.00,,,0.00,,2013-09-14 16:44:00,
2013-09-14 11:54:00,65.0,48.0,30.19,North,349,0.0,0.0,54,0.00,,,0.00,,2013-09-14 16:54:00,
2013-09-14 12:11:00,66.0,49.0,30.18,North,360,0.0,0.0,55,0.00,,,0.00,,2013-09-14 17:11:00,
2013-09-14 12:23:00,66.0,48.0,30.18,SW,229,0.0,0.0,53,0.00,,,0.00,,2013-09-14 17:23:00,
2013-09-14 12:43:00,67.0,48.0,30.18,ESE,123,0.0,0.0,50,0.00,,,0.00,,2013-09-14 17:43:00,
2013-09-14 12:54:00,68.0,49.0,30.17,North,360,0.0,0.0,51,0.00,,,0.00,,2013-09-14 17:54:00,
2013-09-14 13:12:00,68.0,49.0,30.16,North,5,0.0,0.0,51,0.00,,,0.00,,2013-09-14 18:12:00,
2013-09-14 13:22:00,68.0,48.0,30.16,East,91,0.0,1.0,48,0.00,,,0.00,,2013-09-14 18:22:00,
2013-09-14 13:43:00,69.0,48.0,30.15,ENE,74,0.0,4.0,47,0.00,,,0.00,,2013-09-14 18:43:00,
2013-09-14 13:52:00,69.0,51.0,30.15,SSW,198,0.0,0.0,52,0.00,,,0.00,,2013-09-14 18:52:00,
2013-09-14 14:11:00,70.0,50.0,30.14,ENE,63,0.0,6.0,49,0.00,,,0.00,,2013-09-14 19:11:00,
2013-09-14 14:22:00,70.0,48.0,30.14,North,360,0.0,0.0,46,0.00,,,0.00,,2013-09-14 19:22:00,
2013-09-14 14:42:00,70.0,48.0,30.13,ESE,119,0.0,0.0,46,0.00,,,0.00,,2013-09-14 19:42:00,
2013-09-14 14:52:00,70.0,49.0,30.13,NNW,334,0.0,0.0,47,0.00,,,0.00,,2013-09-14 19:52:00,
2013-09-14 15:12:00,71.0,49.0,30.12,SSW,209,0.0,0.0,45,0.00,,,0.00,,2013-09-14 20:12:00,
2013-09-14 15:22:00,71.0,48.0,30.12,NE,34,0.0,0.0,44,0.00,,,0.00,,2013-09-14 20:22:00,
2013-09-14 15:42:00,71.0,49.0,30.12,NE,43,0.0,0.0,46,0.00,,,0.00,,2013-09-14 20:42:00,
2013-09-14 15:52:00,71.0,47.0,30.11,ESE,106,0.0,0.0,43,0.00,,,0.00,,2013-09-14 20:52:00,
2013-09-14 16:11:00,72.0,46.0,30.11,East,96,0.0,0.0,40,0.00,,,0.00,,2013-09-14 21:11:00,
2013-09-14 16:22:00,71.0,46.0,30.09,NW,309,0.0,0.0,41,0.00,,,0.00,,2013-09-14 21:22:00,
2013-09-14 16:44:00,72.0,48.0,30.05,ENE,76,0.0,0.0,42,0.00,,,0.00,,2013-09-14 21:44:00,
2013-09-14 16:54:00,72.0,48.0,30.10,ESE,117,0.0,1.0,42,0.00,,,0.00,,2013-09-14 21:54:00,
2013-09-14 17:13:00,71.0,47.0,30.10,East,92,0.0,0.0,43,0.00,,,0.00,,2013-09-14 22:13:00,
2013-09-14 17:24:00,72.0,48.0,30.10,NE,56,0.0,0.0,42,0.00,,,0.00,,2013-09-14 22:24:00,
2013-09-14 17:42:00,71.0,47.0,30.10,East,92,0.0,0.0,42,0.00,,,0.00,,2013-09-14 22:42:00,
2013-09-14 17:53:00,71.0,49.0,30.10,East,101,0.0,0.0,45,0.00,,,0.00,,2013-09-14 22:53:00,
2013-09-14 18:11:00,71.0,50.0,30.09,East,88,0.0,0.0,47,0.00,,,0.00,,2013-09-14 23:11:00,
2013-09-14 18:23:00,71.0,51.0,30.09,East,88,0.0,0.0,49,0.00,,,0.00,,2013-09-14 23:23:00,
2013-09-14 18:42:00,70.0,50.0,30.09,East,88,0.0,0.0,50,0.00,,,0.00,,2013-09-14 23:42:00,
2013-09-14 18:53:00,69.0,51.0,30.09,East,88,0.0,0.0,53,0.00,,,0.00,,2013-09-14 23:53:00,
2013-09-14 19:12:00,67.0,53.0,30.09,East,88,0.0,0.0,60,0.00,,,0.00,,2013-09-15 00:12:00,
2013-09-14 19:22:00,65.0,54.0,30.09,East,88,0.0,0.0,67,0.00,,,0.00,,2013-09-15 00:22:00,
2013-09-14 20:22:00,58.0,52.0,30.10,East,88,0.0,0.0,81,0.00,,,0.00,,2013-09-15 01:22:00,
2013-09-14 20:42:00,57.0,52.0,30.10,East,88,0.0,0.0,83,0.00,,,0.00,,2013-09-15 01:42:00,
2013-09-14 20:52:00,56.0,52.0,30.10,East,88,0.0,0.0,86,0.00,,,0.00,,2013-09-15 01:52:00,
2013-09-14 21:12:00,56.0,52.0,30.11,East,88,0.0,0.0,87,0.00,,,0.00,,2013-09-15 02:12:00,
2013-09-14 21:22:00,55.0,52.0,30.10,East,88,0.0,0.0,88,0.00,,,0.00,,2013-09-15 02:22:00,
2013-09-14 21:42:00,54.0,51.0,30.11,East,88,0.0,0.0,89,0.00,,,0.00,,2013-09-15 02:42:00,
2013-09-14 21:52:00,54.0,51.0,30.11,East,88,0.0,0.0,89,0.00,,,0.00,,2013-09-15 02:52:00,
2013-09-14 22:11:00,53.0,50.0,30.11,East,88,0.0,0.0,88,0.00,,,0.00,,2013-09-15 03:11:00,
2013-09-14 22:22:00,53.0,50.0,30.11,East,88,0.0,0.0,88,0.00,,,0.00,,2013-09-15 03:22:00,
2013-09-14 22:44:00,53.0,50.0,30.11,East,88,0.0,0.0,88,0.00,,,0.00,,2013-09-15 03:44:00,
2013-09-14 22:55:00,53.0,50.0,30.11,East,88,0.0,0.0,89,0.00,,,0.00,,2013-09-15 03:55:00,
2013-09-14 23:02:00,-999.0,-99.9,30.11,East,88,0.0,0.0,-999,-99.99,,,-99.99,,2013-09-15 04:02:00,
2013-09-14 23:14:00,52.0,49.0,30.11,East,88,0.0,0.0,90,0.00,,,0.00,,2013-09-15 04:14:00,
2013-09-14 23:24:00,52.0,49.0,30.11,East,88,0.0,0.0,90,0.00,,,0.00,,2013-09-15 04:24:00,
2013-09-14 23:43:00,52.0,49.0,30.11,East,88,0.0,0.0,91,0.00,,,0.00,,2013-09-15 04:43:00,
2013-09-14 23:54:00,51.0,48.0,30.11,East,88,0.0,0.0,91,0.00,,,0.00,,2013-09-15 04:54:00,